Date,TemperatureHighF,TemperatureAvgF,TemperatureLowF,DewpointHighF,DewpointAvgF,DewpointLowF,HumidityHigh,HumidityAvg,HumidityLow,PressureMaxIn,PressureMinIn,WindSpeedMaxMPH,WindSpeedAvgMPH,GustSpeedMaxMPH,PrecipitationSumIn
2013-1-1,79.2,71.0,62.0,63.2,60.5,57.9,91,70,55,30.17,30.02,7,1,12,0.00
2013-1-2,80.5,69.6,58.3,67.5,63.0,57.0,98,81,55,30.07,29.96,6,0,14,0.00
2013-1-3,82.0,71.8,64.2,68.9,66.0,62.4,97,83,61,30.10,30.00,4,0,11,0.00
2013-1-4,80.3,70.8,63.2,70.0,66.4,62.3,99,87,58,30.20,30.08,5,1,10,0.00
2013-1-5,72.8,68.4,63.2,69.7,65.9,61.6,95,92,85,30.23,30.13,6,1,12,0.08
2013-1-6,81.1,71.6,63.2,72.9,67.5,61.7,100,88,68,30.17,30.03,5,1,11,0.00
2013-1-7,75.1,69.9,66.1,70.6,67.8,65.2,99,93,80,30.14,30.05,5,0,10,0.30
2013-1-8,80.3,73.7,69.3,73.9,70.1,67.8,98,89,75,30.18,30.05,6,1,14,0.52
2013-1-9,81.6,75.9,71.8,72.2,69.9,68.2,94,82,70,30.25,30.13,7,2,17,0.02
2013-1-10,79.6,75.2,70.8,69.1,66.5,63.3,89,75,59,30.27,30.16,10,3,19,0.00
2013-1-11,78.8,74.0,70.6,70.2,67.6,66.0,89,81,70,30.23,30.13,8,2,17,0.00
2013-1-12,81.1,73.7,66.8,68.6,66.0,63.2,91,77,62,30.16,30.07,7,2,14,0.00
2013-1-13,80.5,73.4,66.6,68.8,65.1,61.3,92,76,61,30.10,30.05,7,1,17,0.00
2013-1-14,79.9,71.8,63.2,66.3,64.1,60.4,94,78,60,30.14,30.09,4,1,13,0.00
2013-1-15,79.4,72.4,66.9,67.7,65.5,62.6,91,79,64,30.11,30.02,6,1,14,0.00
2013-1-16,81.1,71.7,61.6,69.2,65.7,59.3,98,82,63,30.08,29.99,5,1,11,0.03
2013-1-17,80.1,71.0,60.9,70.7,65.0,51.4,97,82,67,30.06,29.94,12,2,22,0.00
2013-1-18,70.9,62.7,51.6,58.6,52.2,44.7,79,69,58,30.21,30.07,9,3,17,0.00
2013-1-19,70.3,67.9,66.0,67.8,63.8,58.6,97,87,70,30.19,30.08,5,0,11,0.20
2013-1-20,77.9,69.8,62.6,68.8,65.6,62.0,100,87,64,30.12,29.98,7,1,11,0.03
2013-1-21,79.0,70.6,64.3,70.4,66.6,63.1,99,88,71,30.04,29.93,6,0,12,0.22
2013-1-22,75.3,67.2,61.8,63.2,57.9,52.0,94,73,56,30.19,29.98,10,4,20,0.00
2013-1-23,73.5,65.9,59.8,59.2,54.6,51.8,81,68,48,30.27,30.17,8,3,16,0.00
2013-1-24,74.0,64.2,56.5,55.4,51.2,39.6,91,65,40,30.27,30.17,6,2,16,0.00
2013-1-25,74.6,63.6,53.9,59.4,54.6,49.8,94,74,54,30.27,30.15,5,1,12,0.00
2013-1-26,77.0,65.2,57.0,59.2,56.0,49.9,94,74,47,30.23,30.13,5,1,12,0.00
2013-1-27,77.2,68.2,59.9,63.3,58.9,56.7,93,74,50,30.26,30.17,8,2,16,0.00
2013-1-28,79.8,72.9,67.4,66.8,63.7,60.3,85,73,58,30.29,30.20,8,2,18,0.00
2013-1-29,78.1,72.9,69.4,69.5,66.7,64.5,92,81,69,30.20,30.10,4,1,14,0.02
2013-1-30,79.9,73.2,68.6,67.4,64.8,62.6,92,75,62,30.10,29.94,8,2,16,0.00
2013-1-31,70.3,64.7,55.3,69.8,57.2,39.5,99,78,47,30.16,29.92,8,2,18,0.00